KI4FRU Weather Reports


Display with metric or nautical units.
time (UTC)temp
F
wind
direction
speed
MPH
gust
MPH
rain 1hr
in
rain 24hr
in
rain mn
in
humidity
%
barometer
mb
20260906052142 72 256 0.0 0.0 0.00 0.00 0.00 99 1051.9
20260906051638 72 256 0.0 0.0 0.00 0.00 0.00 99 1052.1
20260906051137 72 256 0.0 0.0 0.00 0.00 0.00 99 1052.0
20260906050633 72 257 0.0 0.0 0.00 0.00 0.00 99 1052.3
20260906050128 72 257 0.0 0.0 0.00 0.00 0.00 99 1052.2
20260906045626 72 256 0.0 0.0 0.00 0.00 0.00 99 1052.3
20260906045122 72 255 0.0 0.0 0.00 0.00 0.00 99 1052.1
20260906044618 72 255 0.0 0.0 0.00 0.00 0.00 99 1052.4
20260906044113 72 256 0.0 0.0 0.00 0.00 0.00 99 1052.5
20260906043609 72 256 0.0 0.0 0.00 0.00 0.00 99 1052.5
20260906043104 72 255 0.0 0.0 0.00 0.00 0.00 99 1052.5
20260906042604 72 254 0.0 0.0 0.00 0.00 0.00 99 1052.5
20260906042058 72 256 0.0 0.0 0.00 0.00 0.00 99 1052.4
20260906041554 72 256 0.0 0.0 0.00 0.00 0.00 99 1052.2
20260906041049 73 256 0.0 0.0 0.00 0.00 0.00 99 1052.3
20260906040544 73 254 0.0 0.0 0.00 0.00 0.00 99 1052.3
20260906040040 73 254 0.0 0.0 0.00 0.00 0.00 99 1052.5
20260906035535 73 255 0.0 0.0 0.00 0.00 0.00 99 1052.5
20260906035031 73 256 0.0 0.0 0.00 0.00 0.00 99 1052.7
20260906034530 73 256 0.0 0.0 0.00 0.00 0.00 99 1052.5
20260906034026 73 257 0.0 0.0 0.00 0.00 0.00 99 1052.7
20260906033521 73 237 1.0 1.0 0.00 0.00 0.00 99 1052.6
20260906033016 72 255 0.0 0.0 0.00 0.00 0.00 99 1052.6
20260906032512 73 255 0.0 0.0 0.00 0.00 0.00 99 1052.7
20260906032007 72 255 0.0 0.0 0.00 0.00 0.00 99 1052.8
20260906031503 73 256 0.0 0.0 0.00 0.00 0.00 99 1052.5
20260906030957 73 254 0.0 0.0 0.00 0.00 0.00 99 1052.5
20260906030451 73 252 0.0 0.0 0.00 0.00 0.00 99 1052.4
20260906025946 73 254 0.0 0.0 0.00 0.00 0.00 99 1052.3
20260906025440 73 254 0.0 0.0 0.00 0.00 0.00 99 1052.2
20260906024939 73 254 0.0 0.0 0.00 0.00 0.00 99 1052.4
20260906024438 73 259 0.0 0.0 0.00 0.00 0.00 99 1052.4
20260906023933 73 254 0.0 0.0 0.00 0.00 0.00 99 1052.2
20260906023429 73 253 0.0 0.0 0.00 0.00 0.00 99 1052.4
20260906022924 73 255 0.0 0.0 0.00 0.00 0.00 99 1052.4
20260906022420 73 255 0.0 0.0 0.00 0.00 0.00 99 1052.2
20260906021915 73 252 0.0 0.0 0.00 0.00 0.00 99 1052.3
20260906021414 73 255 0.0 0.0 0.00 0.00 0.00 99 1052.2
20260906020909 73 255 0.0 0.0 0.00 0.00 0.00 99 1052.1
20260906020403 73 255 0.0 0.0 0.00 0.00 0.00 99 1052.2
20260906015858 73 254 0.0 0.0 0.00 0.00 0.00 99 1052.1
20260906015356 74 254 0.0 0.0 0.00 0.00 0.00 99 1052.1
20260906014851 74 253 0.0 0.0 0.00 0.00 0.00 99 1052.1
20260906014351 74 254 0.0 0.0 0.00 0.00 0.00 99 1052.0
20260906013847 74 254 0.0 0.0 0.00 0.00 0.00 99 1052.2
20260906013343 74 254 0.0 0.0 0.00 0.00 0.00 99 1052.4
20260906012838 74 255 0.0 0.0 0.00 0.00 0.00 99 1052.1
20260906012333 75 254 0.0 0.0 0.00 0.00 0.00 99 1052.1
20260906011832 74 255 0.0 0.0 0.00 0.00 0.00 99 1052.0
20260906011328 75 255 0.0 0.0 0.00 0.00 0.00 99 1051.8
20260906010824 75 254 0.0 0.0 0.00 0.00 0.00 99 1051.8
20260906010320 75 253 0.0 0.0 0.00 0.00 0.00 99 1051.9
20260906005815 75 253 0.0 0.0 0.00 0.00 0.00 99 1051.7
20260906005313 75 255 0.0 0.0 0.00 0.00 0.00 99 1051.9
20260906004813 76 254 0.0 0.0 0.00 0.00 0.00 99 1051.8
20260906004313 76 254 0.0 0.0 0.00 0.00 0.00 99 1051.8
20260906003808 76 255 0.0 0.0 0.00 0.00 0.00 99 1051.6
20260906003303 76 255 0.0 0.0 0.00 0.00 0.00 99 1051.5
20260906002759 77 255 0.0 0.0 0.00 0.00 0.00 99 1051.4
20260906002258 77 254 0.0 0.0 0.00 0.00 0.00 99 1051.3
20260906001754 77 254 0.0 0.0 0.00 0.00 0.00 99 1051.2
20260906001248 77 255 0.0 0.0 0.00 0.00 0.00 99 1051.2
20260906000743 78 254 0.0 0.0 0.00 0.00 0.00 99 1051.1
20260906000238 78 255 0.0 0.0 0.00 0.00 0.00 98 1050.9
20260905235733 78 253 0.0 0.0 0.00 0.00 0.00 98 1050.8
20260905235233 78 255 0.0 0.0 0.00 0.00 0.00 97 1050.8
20260905234729 79 255 0.0 0.0 0.00 0.00 0.00 96 1050.8
20260905234224 80 255 0.0 0.0 0.00 0.00 0.00 95 1050.9
20260905233719 80 255 0.0 0.0 0.00 0.00 0.00 94 1050.7
20260905233218 81 254 0.0 0.0 0.00 0.00 0.00 92 1050.9
20260905232713 81 253 0.0 0.0 0.00 0.00 0.00 91 1050.9
20260905232209 82 253 0.0 0.0 0.00 0.00 0.00 90 1050.9
20260905231705 82 251 0.0 0.0 0.00 0.00 0.00 88 1050.6
20260905231200 82 261 0.0 0.0 0.00 0.00 0.00 86 1050.8
20260905230656 83 253 0.0 0.0 0.00 0.00 0.00 86 1050.6
20260905230154 83 253 0.0 0.0 0.00 0.00 0.00 86 1050.8
20260905225653 83 244 0.0 0.0 0.00 0.00 0.00 86 1050.6
20260905225148 83 245 0.0 0.0 0.00 0.00 0.00 85 1050.4
20260905224648 83 243 0.0 0.0 0.00 0.00 0.00 85 1050.4
20260905224142 83 266 0.0 1.0 0.00 0.00 0.00 84 1050.7
20260905223639 83 225 0.0 0.0 0.00 0.00 0.00 84 1050.7
20260905223136 83 259 0.0 0.0 0.00 0.00 0.00 83 1050.8
20260905222630 84 260 0.0 0.0 0.00 0.00 0.00 83 1050.8
20260905222120 84 257 0.0 2.0 0.00 0.00 0.00 83 1050.7
20260905221616 84 258 0.0 0.0 0.00 0.00 0.00 82 1050.8
20260905221112 85 247 0.0 0.0 0.00 0.00 0.00 80 1050.9
20260905220607 86 214 0.0 0.0 0.00 0.00 0.00 80 1050.9
20260905220104 87 220 0.0 0.0 0.00 0.00 0.00 78 1050.9
20260905215603 87 270 0.0 1.0 0.00 0.00 0.00 77 1051.2
20260905215059 88 232 0.0 0.0 0.00 0.00 0.00 77 1051.1
20260905214554 87 204 0.0 1.0 0.00 0.00 0.00 78 1051.3
20260905214049 87 230 0.0 0.0 0.00 0.00 0.00 81 1051.4
20260905213544 86 181 0.0 1.0 0.00 0.00 0.00 78 1051.2
20260905213039 86 233 0.0 0.0 0.00 0.00 0.00 81 1051.6
20260905212534 87 247 0.0 0.0 0.00 0.00 0.00 81 1051.4
20260905212033 87 242 0.0 0.0 0.00 0.00 0.00 81 1051.4
20260905211529 87 244 0.0 2.0 0.00 0.00 0.00 80 1051.6
20260905211025 87 247 0.0 0.0 0.00 0.00 0.00 82 1051.6
20260905210520 87 255 0.0 0.0 0.00 0.00 0.00 82 1051.4
20260905210020 86 245 0.0 0.0 0.00 0.00 0.00 86 1051.5
20260905205515 85 240 0.0 0.0 0.00 0.00 0.00 86 1051.7
20260905205014 85 260 0.0 1.0 0.00 0.00 0.00 85 1051.5
20260905204508 84 255 0.0 0.0 0.00 0.00 0.00 88 1051.3
20260905204003 83 43 0.0 0.0 0.00 0.00 0.00 89 1051.8
20260905203458 83 83 0.0 0.0 0.00 0.00 0.00 87 1051.6
20260905202953 82 79 0.0 0.0 0.00 0.00 0.00 90 1051.5
20260905202448 82 80 0.0 0.0 0.00 0.00 0.00 89 1051.7
20260905201943 82 78 0.0 0.0 0.00 0.00 0.00 88 1051.8
20260905201439 82 240 0.0 0.0 0.00 0.00 0.00 88 1051.8
20260905200933 82 257 0.0 0.0 0.00 0.00 0.00 88 1051.6
20260905200429 81 242 0.0 0.0 0.00 0.00 0.00 89 1051.7
20260905195927 81 194 0.0 0.0 0.00 0.00 0.00 91 1051.8
20260905195422 82 187 0.0 0.0 0.00 0.00 0.00 89 1051.8
20260905194918 81 187 0.0 0.0 0.00 0.00 0.00 91 1051.9
20260905194417 81 187 0.0 0.0 0.00 0.00 0.00 90 1052.2
20260905193917 81 186 0.0 1.0 0.00 0.00 0.00 87 1052.2
20260905193412 81 187 0.0 0.0 0.00 0.00 0.00 86 1052.0
20260905192908 81 185 1.0 1.0 0.00 0.00 0.00 87 1052.0
20260905192403 81 237 0.0 0.0 0.00 0.00 0.00 88 1052.1
20260905191903 81 250 0.0 0.0 0.00 0.00 0.00 88 1052.0
20260905191402 81 262 0.0 1.0 0.00 0.00 0.00 87 1052.0
20260905190901 81 209 0.0 0.0 0.00 0.00 0.00 87 1051.7
20260905190354 81 198 1.0 1.0 0.00 0.00 0.00 84 1051.4
20260905185854 81 202 0.0 0.0 0.00 0.00 0.00 86 1051.3
20260905185349 81 203 0.0 1.0 0.00 0.00 0.00 86 1051.4
20260905184848 81 209 0.0 0.0 0.00 0.00 0.00 86 1051.5
20260905184348 80 184 1.0 1.0 0.00 0.00 0.00 82 1051.2
20260905183846 80 186 0.0 1.0 0.00 0.00 0.00 85 1051.3
20260905183342 81 315 0.0 0.0 0.00 0.00 0.00 86 1051.4
20260905182841 81 325 0.0 1.0 0.00 0.00 0.00 85 1051.6
20260905182336 80 312 0.0 0.0 0.00 0.00 0.00 84 1052.0
20260905181831 81 315 0.0 0.0 0.00 0.00 0.00 83 1052.6
20260905181331 82 8 0.0 1.0 0.00 0.00 0.00 83 1052.5
20260905180830 82 294 0.0 0.0 0.00 0.00 0.00 82 1052.3
20260905180325 83 18 0.0 1.0 0.00 0.00 0.00 81 1052.2
20260905175820 83 25 0.0 0.0 0.00 0.00 0.00 76 1052.5
20260905175314 84 25 0.0 1.0 0.00 0.00 0.00 74 1052.9
20260905174810 84 70 0.0 2.0 0.00 0.00 0.00 71 1052.8
20260905174306 87 15 4.0 6.0 0.00 0.00 0.00 66 1053.2
20260905173801 94 14 2.0 11.0 0.00 0.00 0.00 61 1053.4
20260905173257 96 206 0.0 2.0 0.00 0.00 0.00 69 1052.9
20260905172757 96 258 0.0 1.0 0.00 0.00 0.00 67 1052.6
20260905172255 97 251 0.0 2.0 0.00 0.00 0.00 67 1052.7
20260905171752 96 269 2.0 2.0 0.00 0.00 0.00 64 1052.9
20260905171248 95 215 0.0 1.0 0.00 0.00 0.00 65 1052.7
20260905170744 96 212 0.0 1.0 0.00 0.00 0.00 72 1052.9
20260905170240 96 225 0.0 0.0 0.00 0.00 0.00 70 1053.0
20260905165738 97 208 0.0 1.0 0.00 0.00 0.00 67 1053.0
20260905165234 96 225 0.0 0.0 0.00 0.00 0.00 66 1053.0
20260905164734 97 287 1.0 2.0 0.00 0.00 0.00 65 1053.2
20260905164228 97 222 0.0 1.0 0.00 0.00 0.00 68 1052.9
20260905163725 93 137 0.0 0.0 0.00 0.00 0.00 69 1052.9
20260905163220 95 222 0.0 0.0 0.00 0.00 0.00 71 1053.2
20260905162717 95 210 0.0 1.0 0.00 0.00 0.00 70 1053.4
20260905162216 96 244 0.0 1.0 0.00 0.00 0.00 68 1053.3
20260905161711 94 216 0.0 0.0 0.00 0.00 0.00 76 1053.5
20260905161209 92 272 0.0 1.0 0.00 0.00 0.00 75 1053.6
20260905160708 94 240 0.0 1.0 0.00 0.00 0.00 74 1053.7
20260905160208 93 222 0.0 1.0 0.00 0.00 0.00 76 1053.7
20260905155703 93 182 0.0 1.0 0.00 0.00 0.00 75 1053.6
20260905155202 91 216 0.0 0.0 0.00 0.00 0.00 79 1053.6
20260905154655 91 259 0.0 2.0 0.00 0.00 0.00 75 1053.6
20260905154151 89 268 0.0 2.0 0.00 0.00 0.00 82 1053.5
20260905153641 89 209 0.0 1.0 0.00 0.00 0.00 81 1053.5
20260905153136 89 226 0.0 1.0 0.00 0.00 0.00 87 1053.4
20260905152631 88 185 1.0 1.0 0.00 0.00 0.00 85 1053.3
20260905152126 87 197 0.0 1.0 0.00 0.00 0.00 87 1053.4
20260905151621 87 207 0.0 0.0 0.00 0.00 0.00 87 1053.4
20260905151116 87 198 0.0 0.0 0.00 0.00 0.00 89 1053.2
20260905150612 86 199 0.0 0.0 0.00 0.00 0.00 91 1053.4
20260905150109 86 201 0.0 1.0 0.00 0.00 0.00 91 1053.4
20260905145603 86 200 0.0 1.0 0.00 0.00 0.00 95 1053.4
20260905145102 85 200 0.0 1.0 0.00 0.00 0.00 92 1053.5
20260905144557 85 200 0.0 1.0 0.00 0.00 0.00 94 1053.5
20260905144055 85 208 0.0 0.0 0.00 0.00 0.00 95 1053.5
20260905143550 84 212 0.0 0.0 0.00 0.00 0.00 96 1053.7
20260905143045 84 221 0.0 0.0 0.00 0.00 0.00 96 1053.5
20260905142544 84 262 0.0 0.0 0.00 0.00 0.00 96 1053.7
20260905142038 83 259 0.0 0.0 0.00 0.00 0.00 97 1053.5
20260905141533 83 244 0.0 1.0 0.00 0.00 0.00 96 1053.3
20260905141029 82 254 0.0 0.0 0.00 0.00 0.00 97 1053.4
20260905140524 82 232 0.0 1.0 0.00 0.00 0.00 97 1053.4
20260905140023 81 258 0.0 0.0 0.00 0.00 0.00 99 1053.4
20260905135519 81 276 0.0 2.0 0.00 0.00 0.00 99 1053.4
20260905135013 80 227 0.0 0.0 0.00 0.00 0.00 99 1053.7
20260905134508 80 246 0.0 0.0 0.00 0.00 0.00 99 1053.8
20260905134007 79 225 0.0 0.0 0.00 0.00 0.00 99 1053.7
20260905133502 79 220 0.0 1.0 0.00 0.00 0.00 99 1053.6
20260905132956 78 237 0.0 0.0 0.00 0.00 0.00 99 1053.6
20260905132451 78 233 0.0 0.0 0.00 0.00 0.00 99 1053.7
20260905131945 77 241 0.0 0.0 0.00 0.00 0.00 99 1053.7
20260905131442 76 245 0.0 0.0 0.00 0.00 0.00 99 1053.6
20260905130936 76 267 0.0 1.0 0.00 0.00 0.00 99 1053.8
20260905130436 76 232 0.0 0.0 0.00 0.00 0.00 99 1053.6
20260905125935 76 232 0.0 0.0 0.00 0.00 0.00 99 1053.7
20260905125431 75 232 0.0 0.0 0.00 0.00 0.00 99 1053.8
20260905124926 75 232 0.0 0.0 0.00 0.00 0.00 99 1054.0
20260905124423 75 232 0.0 0.0 0.00 0.00 0.00 99 1053.8
20260905123922 75 232 0.0 0.0 0.00 0.00 0.00 99 1054.0
20260905123419 75 229 0.0 0.0 0.00 0.00 0.00 99 1053.8
20260905122914 74 229 0.0 0.0 0.00 0.00 0.00 99 1053.8
20260905122414 74 234 0.0 0.0 0.00 0.00 0.00 99 1053.6
20260905121910 74 234 0.0 0.0 0.00 0.00 0.00 99 1053.7
20260905121405 74 234 0.0 0.0 0.00 0.00 0.00 99 1053.6
20260905120904 73 234 0.0 0.0 0.00 0.00 0.00 99 1053.8
20260905120404 73 234 0.0 0.0 0.00 0.00 0.00 99 1053.5
20260905115859 73 234 0.0 0.0 0.00 0.00 0.00 99 1053.4
20260905115358 73 234 0.0 0.0 0.00 0.00 0.00 99 1053.6
20260905114853 73 234 0.0 0.0 0.00 0.00 0.00 99 1053.6
20260905114352 72 234 0.0 0.0 0.00 0.00 0.00 99 1053.5
20260905113846 72 235 0.0 0.0 0.00 0.00 0.00 99 1053.4
20260905113342 72 235 0.0 0.0 0.00 0.00 0.00 99 1053.3
20260905112837 72 236 0.0 0.0 0.00 0.00 0.00 99 1053.3
20260905112331 72 236 0.0 0.0 0.00 0.00 0.00 99 1053.2
20260905111826 72 236 0.0 0.0 0.00 0.00 0.00 99 1053.2
20260905111321 72 236 0.0 0.0 0.00 0.00 0.00 99 1053.1
20260905110820 72 236 0.0 0.0 0.00 0.00 0.00 99 1053.1
20260905110314 73 236 0.0 0.0 0.00 0.00 0.00 99 1053.0
20260905105810 73 236 0.0 0.0 0.00 0.00 0.00 99 1052.9
20260905105309 72 236 0.0 0.0 0.00 0.00 0.00 99 1052.9
20260905104803 72 236 0.0 0.0 0.00 0.00 0.00 99 1052.8
20260905104300 72 236 0.0 0.0 0.00 0.00 0.00 99 1052.7
20260905103800 72 236 0.0 0.0 0.00 0.00 0.00 99 1052.8
20260905103255 72 236 0.0 0.0 0.00 0.00 0.00 99 1052.7
20260905102750 72 236 0.0 0.0 0.00 0.00 0.00 99 1052.7
20260905102247 72 236 0.0 0.0 0.00 0.00 0.00 99 1052.8
20260905101741 72 236 0.0 0.0 0.00 0.00 0.00 99 1052.7
20260905101239 72 236 0.0 0.0 0.00 0.00 0.00 99 1052.6
20260905100734 72 236 0.0 0.0 0.00 0.00 0.00 99 1052.7
20260905100230 72 236 0.0 0.0 0.00 0.00 0.00 99 1052.5
20260905095724 72 236 0.0 0.0 0.00 0.00 0.00 99 1052.6
20260905095224 72 236 0.0 0.0 0.00 0.00 0.00 99 1052.5
20260905094718 73 236 0.0 0.0 0.00 0.00 0.00 99 1052.5
20260905094213 73 236 0.0 0.0 0.00 0.00 0.00 99 1052.5
20260905093707 73 236 0.0 0.0 0.00 0.00 0.00 99 1052.6
20260905093204 73 236 0.0 0.0 0.00 0.00 0.00 99 1052.7
20260905092659 73 236 0.0 0.0 0.00 0.00 0.00 99 1052.6
20260905092154 73 236 0.0 0.0 0.00 0.00 0.00 99 1052.5
20260905091654 73 236 0.0 0.0 0.00 0.00 0.00 99 1052.7
20260905091154 73 236 0.0 0.0 0.00 0.00 0.00 99 1052.7
20260905090654 73 236 0.0 0.0 0.00 0.00 0.00 99 1052.7
20260905090150 73 236 0.0 0.0 0.00 0.00 0.00 99 1052.6
20260905085648 73 236 0.0 0.0 0.00 0.00 0.00 99 1052.5
20260905085143 74 236 0.0 0.0 0.00 0.00 0.00 99 1052.6
20260905084643 73 236 0.0 0.0 0.00 0.00 0.00 99 1052.9
20260905084138 73 237 0.0 0.0 0.00 0.00 0.00 99 1052.8
20260905083632 73 238 0.0 0.0 0.00 0.00 0.00 99 1052.8
20260905083129 73 264 0.0 0.0 0.00 0.00 0.00 99 1052.8
20260905082624 73 208 0.0 0.0 0.00 0.00 0.00 99 1052.8
20260905082120 73 208 0.0 0.0 0.00 0.00 0.00 99 1052.7
20260905081620 74 208 0.0 0.0 0.00 0.00 0.00 99 1052.8
20260905081114 74 208 0.0 0.0 0.00 0.00 0.00 99 1052.9
20260905080615 74 208 0.0 0.0 0.00 0.00 0.00 99 1053.0
20260905080109 74 208 0.0 0.0 0.00 0.00 0.00 99 1053.0
20260905075608 74 208 0.0 0.0 0.00 0.00 0.00 99 1053.5
20260905075102 74 208 0.0 0.0 0.00 0.00 0.00 99 1053.2
20260905074601 74 208 0.0 0.0 0.00 0.00 0.00 99 1053.2
20260905074057 74 208 0.0 0.0 0.00 0.00 0.00 99 1053.4
20260905073553 74 208 0.0 0.0 0.00 0.00 0.00 99 1053.3
20260905073048 74 208 0.0 0.0 0.00 0.00 0.00 99 1053.2
20260905072547 75 208 0.0 0.0 0.00 0.00 0.00 99 1053.4
20260905072043 75 208 0.0 0.0 0.00 0.00 0.00 99 1053.4
20260905071540 75 208 0.0 0.0 0.00 0.00 0.00 99 1053.4
20260905071034 74 208 0.0 0.0 0.00 0.00 0.00 99 1053.4
20260905070530 75 208 0.0 0.0 0.00 0.00 0.00 99 1053.6
20260905070026 75 208 0.0 0.0 0.00 0.00 0.00 99 1053.5
20260905065523 75 208 0.0 0.0 0.00 0.00 0.00 99 1053.5
20260905065019 75 208 0.0 0.0 0.00 0.00 0.00 99 1053.6
20260905064513 75 208 0.0 0.0 0.00 0.00 0.00 99 1053.7
20260905064008 75 208 0.0 0.0 0.00 0.00 0.00 99 1053.8
20260905063502 75 208 0.0 0.0 0.00 0.00 0.00 99 1053.8
20260905062959 75 208 0.0 0.0 0.00 0.00 0.00 99 1054.0
20260905062458 75 208 0.0 0.0 0.00 0.00 0.00 99 1053.8
20260905061953 75 208 0.0 0.0 0.00 0.00 0.00 99 1053.8
20260905061448 75 208 0.0 0.0 0.00 0.00 0.00 99 1054.1
20260905060948 75 208 0.0 0.0 0.00 0.00 0.00 99 1054.3
20260905060444 75 208 0.0 0.0 0.00 0.00 0.00 99 1054.3
20260905055943 75 208 0.0 0.0 0.00 0.00 0.00 99 1054.2
20260905055438 75 208 0.0 0.0 0.00 0.00 0.00 99 1054.5
20260905054937 75 208 0.0 0.0 0.00 0.00 0.00 99 1054.5
20260905054433 75 208 0.0 0.0 0.00 0.00 0.00 99 1054.6
20260905053933 76 208 0.0 0.0 0.00 0.00 0.00 99 1054.7
20260905053428 76 208 0.0 0.0 0.00 0.00 0.00 99 1054.8
20260905052924 76 208 0.0 0.0 0.00 0.00 0.00 99 1054.8
20260905052423 76 208 0.0 0.0 0.00 0.00 0.00 99 1054.8